Wind_Speed
31 30 27 17 14 8 6 3 1 2 4 8 8 8 7 5 6 9 12 13 13 11 10 10 10 10 9 9 9 9 10 10 10 11 12 14 16 18 18 19 21 22 25 26
36 38 34 24 20 16 13 10 7 4 2 1 3 3 4 4 6 9 9 8 8 8 7 7 6 7 6 6 6 7 8 11 13 13 14 15 17 18 20 22 24 25 26 28
40 47 38 33 28 23 20 19 14 10 8 7 6 5 5 4 8 7 6 2 1 1 2 4 4 5 7 6 5 7 9 11 14 17 18 19 21 23 25 28 29 30 29 31
46 51 39 38 38 34 31 28 21 16 16 11 12 12 9 8 13 9 8 6 5 4 4 4 5 6 8 9 9 10 13 16 19 20 21 24 25 27 29 31 33 34 34 35
53 55 47 42 44 46 42 34 29 23 21 18 19 16 13 13 12 9 8 9 9 7 7 8 9 9 9 9 12 14 18 21 22 24 26 28 30 30 31 32 35 36 36 38
61 62 52 48 48 47 47 35 33 31 26 22 26 22 20 17 17 14 12 12 13 13 12 11 11 13 14 16 19 20 22 25 27 29 31 34 33 34 35 35 37 38 38 40
68 66 60 57 53 48 47 43 35 31 30 31 28 28 26 22 22 19 18 17 16 17 16 16 17 20 22 23 26 27 27 30 32 34 35 36 35 35 37 40 42 42 42 44
75 73 69 63 59 56 52 51 43 38 34 38 37 35 28 26 24 27 27 24 23 22 22 23 25 26 29 31 32 33 33 34 35 37 38 39 41 42 42 41 41 43 43 46
81 78 77 72 69 67 59 54 49 45 39 39 40 40 35 31 32 31 30 30 28 28 30 29 31 32 35 35 37 37 37 38 39 40 42 43 44 44 44 45 46 47 48 50
88 85 83 81 79 72 66 63 58 51 44 41 43 43 44 39 36 36 36 35 33 33 34 33 34 35 37 38 38 39 40 41 42 43 44 44 45 46 47 48 50 51 52 55
95 92 89 87 83 77 71 68 64 56 50 45 45 45 49 46 43 40 42 40 39 39 39 38 37 39 41 42 43 44 44 43 44 45 46 47 48 49 50 52 51 54 57 53
101 98 95 88 84 83 81 75 70 65 55 52 51 50 54 52 47 44 45 44 45 46 43 42 41 44 45 45 45 46 47 46 43 44 47 49 51 52 53 55 56 55 50 48
104 103 98 95 93 89 82 76 71 67 63 57 53 51 55 55 52 48 48 47 48 50 47 46 47 48 49 49 49 49 50 49 47 49 51 53 55 55 55 57 57 48 48 46
102 104 101 98 91 88 87 81 76 71 68 61 52 53 59 58 56 52 51 51 51 53 52 52 52 52 52 53 52 53 54 54 53 54 55 56 56 53 50 51 53 41 44 49
95 100 104 99 97 96 93 89 84 78 69 65 57 58 62 61 59 57 55 53 53 53 55 57 56 55 55 56 58 59 60 59 58 59 59 57 54 47 47 46 46 41 37 36
92 95 102 101 101 101 98 93 89 84 77 72 66 63 62 65 62 58 56 54 56 57 58 60 58 57 59 59 62 65 65 64 65 63 61 54 51 52 52 51 48 43 40 38
89 90 98 101 102 104 106 97 93 86 81 74 69 64 68 68 64 62 61 59 58 59 60 62 62 61 62 63 67 68 70 70 69 64 57 53 55 58 56 53 47 43 48 48
84 87 87 95 103 108 95 93 92 89 84 82 78 72 71 72 69 68 64 61 62 65 65 67 68 66 65 67 70 73 74 73 71 64 58 56 57 60 59 58 52 49 53 54
75 80 79 85 99 101 97 98 95 92 84 83 80 77 77 76 75 71 68 68 71 72 71 71 73 70 70 71 74 77 79 75 70 62 60 60 61 63 64 63 62 57 54 58
67 75 75 77 90 99 97 98 97 94 90 85 83 82 82 79 78 76 74 76 76 75 76 75 77 75 74 75 77 78 78 73 66 64 65 66 67 69 68 66 66 66 56 58
62 69 72 75 85 92 95 97 97 97 87 84 85 84 81 80 80 80 81 80 79 79 80 79 79 78 77 75 75 73 70 68 66 68 68 71 71 73 69 72 62 65 61 64
60 60 68 72 79 87 91 96 97 94 90 89 88 84 80 80 83 81 80 79 79 79 80 80 79 77 75 72 70 68 67 69 69 71 73 74 77 76 73 59 59 63 62 65
60 57 62 67 76 83 89 93 94 92 91 90 89 85 83 81 78 77 75 77 78 77 77 78 77 77 73 70 68 69 71 71 73 75 77 77 77 78 67 64 61 65 66 67
58 54 55 66 66 79 83 90 91 90 90 89 85 81 83 79 77 76 77 76 76 76 76 76 76 75 76 75 72 73 76 76 79 81 79 79 79 73 67 60 62 62 67 64
60 53 60 63 52 60 68 82 87 89 89 86 83 82 84 81 79 77 78 76 76 75 76 76 77 79 80 78 76 76 78 81 82 81 80 80 78 76 73 68 63 66 69 71
56 52 55 61 68 64 49 64 77 85 86 85 82 83 81 80 79 79 78 78 77 78 79 80 82 83 81 78 78 81 81 81 81 81 78 75 76 75 74 72 70 70 72 74
Wind_Direction
257 261 259 256 258 264 293 297 241 20 58 75 74 89 101 127 131 119 114 113 111 104 98 90 84 79 70 64 57 49 37 32 26 14 8 8 3 2 359 356 355 349 351 342
247 253 254 253 249 245 251 266 265 225 232 109 107 118 116 145 158 139 124 121 120 110 84 63 59 45 48 53 38 23 9 6 4 358 354 355 350 348 347 346 344 344 341 342
238 244 251 252 251 242 246 245 244 257 232 220 216 217 209 227 204 174 170 187 224 120 15 354 5 8 1 354 346 349 352 350 342 338 338 337 336 338 340 338 337 337 338 337
241 242 243 245 252 251 245 243 232 234 243 233 231 224 215 216 211 216 218 231 225 261 299 331 321 317 312 312 314 324 326 326 328 329 328 328 332 333 333 330 330 331 333 334
241 241 241 239 241 251 248 240 239 229 236 235 239 238 236 233 227 224 232 259 262 275 279 286 292 290 287 292 300 308 317 319 319 320 321 324 327 326 324 323 325 328 330 328
237 242 242 240 238 242 252 247 240 242 238 239 242 238 231 235 244 236 231 243 267 270 268 273 276 277 283 292 297 302 310 311 315 317 318 320 323 323 323 323 324 327 327 328
238 242 243 244 243 242 249 254 248 245 244 246 238 241 237 235 241 247 237 235 240 252 262 265 268 276 284 291 294 300 305 308 310 311 313 315 319 320 320 323 325 326 326 326
232 236 242 242 245 246 240 243 245 242 236 240 239 243 238 245 244 243 247 246 249 254 261 269 273 280 287 290 295 297 299 301 302 305 311 315 317 320 324 321 321 322 323 322
230 236 241 239 238 240 242 244 239 241 238 237 249 251 247 240 248 253 255 259 258 261 265 269 274 279 283 287 291 294 295 298 304 308 309 313 317 318 320 321 320 319 320 320
229 232 236 238 238 238 242 241 242 244 238 235 238 246 253 248 247 253 257 258 262 264 267 270 275 280 284 286 288 293 295 298 302 306 310 313 313 316 319 317 318 318 318 321
229 228 232 235 239 237 239 242 246 245 243 237 236 239 249 251 249 250 257 260 262 263 264 269 275 276 278 284 288 291 294 298 303 308 309 310 311 313 314 315 317 317 319 321
228 227 229 233 235 237 236 239 241 242 241 239 236 237 241 251 252 251 252 259 262 266 270 272 273 274 279 282 285 289 292 294 298 302 304 305 307 311 312 313 312 316 323 320
227 226 226 229 231 234 237 239 243 244 245 247 246 243 244 248 253 254 256 256 262 266 268 271 271 275 280 283 286 287 290 294 298 301 303 304 305 306 310 312 314 321 316 310
228 226 226 227 229 231 232 235 237 240 241 244 246 240 243 246 250 252 255 257 258 262 266 268 273 276 278 280 283 286 289 292 297 299 300 301 303 308 313 315 319 309 318 309
229 226 226 226 227 230 231 230 231 233 234 237 236 237 240 245 249 250 252 255 258 261 264 267 270 274 277 279 283 286 288 291 297 298 301 304 306 305 312 315 315 307 304 310
232 227 226 224 226 229 230 231 232 231 230 232 232 236 240 246 250 251 252 254 257 260 263 267 270 273 275 279 283 286 290 293 295 299 301 302 305 309 309 311 308 299 286 292
234 231 227 224 224 227 229 230 233 233 232 232 232 234 238 243 248 251 252 255 258 260 263 267 270 273 276 280 283 287 290 292 294 299 301 302 306 309 310 308 305 292 279 268
233 234 228 225 226 228 230 231 234 235 232 232 231 231 236 242 244 248 252 256 259 261 263 266 270 273 277 281 284 286 288 289 294 298 296 300 304 304 302 302 300 291 278 268
233 233 233 226 226 228 227 230 231 234 236 236 235 233 235 238 243 246 249 253 257 259 262 266 269 273 276 279 281 282 284 290 294 292 293 298 300 301 301 300 297 291 279 271
234 233 231 229 225 227 225 228 231 231 230 234 235 235 236 238 241 244 247 249 253 257 261 263 266 269 271 273 276 280 285 287 289 290 293 297 298 300 298 298 296 290 277 264
234 229 228 226 223 224 225 227 230 232 231 233 236 237 238 239 242 244 247 249 252 256 259 263 266 269 270 273 277 280 281 283 286 288 290 293 293 296 298 299 286 282 276 265
230 224 227 226 224 222 223 225 228 231 231 232 234 236 238 240 243 245 248 252 255 258 260 263 265 269 271 273 275 276 277 279 282 286 291 295 297 297 297 291 279 275 271 269
231 225 225 224 224 223 222 226 227 229 231 233 235 237 239 242 245 247 250 251 254 257 260 263 266 269 272 271 271 275 277 282 284 290 292 293 293 295 292 290 283 272 270 273
226 225 223 221 220 226 225 226 228 230 233 234 235 238 241 242 244 247 249 252 255 258 261 264 267 268 268 270 274 278 282 284 287 289 291 293 293 289 289 285 285 277 276 281
221 220 220 217 219 224 227 228 229 231 233 235 236 237 241 242 244 247 250 252 255 258 260 263 265 267 271 274 277 280 282 284 287 289 289 288 289 291 292 290 287 284 281 280
222 214 209 209 213 216 216 227 230 232 233 234 236 238 241 243 245 248 251 253 254 256 259 261 264 268 273 278 280 281 283 285 286 287 288 289 290 291 295 292 291 289 285 285
Height
10967 10967 10967 10972 10973 10973 10973 10973 10973 10973 10972 10972 10973 10975 10976 10978 10979 10980 10980 10980 10980 10981 10982 10983 10983 10982 10981 10981 10980 10980 10980 10980 10979 10978 10978 10976 10975 10973 10970 10969 10967 10963 10960 10957
10962 10959 10961 10966 10968 10970 10970 10971 10971 10971 10972 10972 10973 10974 10976 10978 10980 10980 10980 10981 10981 10981 10982 10982 10982 10982 10981 10980 10980 10980 10980 10979 10978 10977 10976 10974 10973 10971 10968 10965 10962 10959 10955 10952
10952 10947 10955 10960 10962 10965 10966 10967 10969 10970 10970 10971 10973 10973 10974 10976 10979 10979 10979 10979 10980 10980 10980 10980 10980 10979 10979 10979 10979 10979 10979 10978 10977 10975 10973 10971 10969 10966 10962 10958 10956 10953 10950 10946
10940 10936 10949 10953 10954 10955 10958 10961 10966 10967 10968 10970 10971 10972 10972 10974 10975 10975 10976 10976 10977 10977 10977 10977 10978 10978 10977 10977 10977 10977 10976 10975 10973 10971 10969 10967 10964 10959 10956 10953 10950 10947 10943 10939
10928 10926 10937 10943 10945 10942 10945 10955 10959 10963 10964 10967 10967 10968 10970 10970 10971 10970 10970 10971 10972 10973 10973 10974 10974 10975 10975 10975 10974 10973 10972 10970 10968 10967 10965 10962 10959 10955 10952 10949 10946 10942 10938 10934
10912 10911 10924 10932 10934 10935 10931 10946 10952 10956 10959 10963 10962 10965 10966 10966 10966 10967 10967 10968 10968 10968 10969 10970 10971 10972 10972 10971 10970 10968 10966 10964 10963 10962 10960 10958 10955 10951 10948 10944 10941 10938 10933 10929
10899 10902 10910 10917 10923 10928 10929 10932 10943 10949 10953 10953 10955 10957 10960 10962 10962 10963 10963 10964 10964 10965 10966 10967 10967 10967 10967 10966 10964 10962 10961 10959 10957 10956 10955 10953 10951 10947 10944 10939 10934 10931 10926 10921
10882 10886 10895 10905 10911 10917 10921 10922 10931 10937 10942 10941 10945 10948 10953 10957 10957 10956 10957 10958 10959 10960 10961 10961 10961 10961 10960 10958 10956 10956 10955 10953 10952 10951 10949 10947 10944 10942 10938 10935 10931 10926 10921 10914
10863 10872 10875 10885 10891 10897 10908 10917 10921 10925 10933 10935 10933 10936 10944 10948 10947 10949 10950 10951 10953 10953 10954 10955 10955 10954 10952 10951 10950 10948 10946 10945 10944 10943 10941 10939 10936 10933 10928 10925 10921 10915 10912 10907
10840 10850 10854 10860 10870 10882 10894 10900 10906 10915 10924 10930 10929 10928 10929 10936 10939 10940 10941 10942 10944 10945 10946 10947 10947 10946 10944 10942 10941 10940 10938 10937 10936 10935 10932 10930 10927 10923 10920 10916 10910 10904 10899 10894
10813 10827 10832 10838 10855 10871 10879 10885 10895 10905 10912 10919 10922 10924 10918 10922 10927 10931 10930 10932 10933 10935 10938 10938 10938 10935 10935 10933 10933 10932 10929 10928 10927 10925 10923 10919 10917 10915 10910 10905 10900 10894 10888 10882
10786 10799 10809 10827 10837 10845 10856 10867 10877 10887 10900 10905 10909 10914 10908 10909 10915 10919 10921 10922 10922 10923 10926 10927 10926 10924 10924 10924 10924 10922 10920 10920 10921 10919 10915 10911 10908 10905 10901 10895 10889 10884 10878 10872
10756 10776 10791 10800 10807 10822 10841 10857 10868 10876 10883 10895 10900 10905 10902 10901 10904 10908 10910 10913 10912 10910 10913 10914 10914 10913 10913 10913 10912 10911 10909 10908 10910 10909 10907 10904 10901 10897 10893 10886 10878 10872 10869 10863
10732 10754 10772 10784 10801 10807 10815 10833 10845 10857 10869 10880 10893 10894 10888 10891 10894 10898 10900 10902 10904 10903 10903 10903 10904 10904 10904 10902 10900 10900 10899 10898 10901 10899 10897 10894 10891 10887 10882 10876 10869 10865 10862 10854
10711 10735 10748 10770 10776 10781 10793 10807 10820 10833 10852 10860 10875 10876 10874 10877 10883 10886 10890 10894 10895 10895 10893 10892 10893 10893 10891 10890 10888 10886 10887 10887 10889 10887 10884 10881 10878 10877 10875 10868 10861 10860 10858 10851
10694 10712 10724 10744 10755 10758 10770 10787 10800 10815 10828 10841 10853 10862 10865 10862 10868 10874 10878 10882 10882 10882 10880 10878 10880 10881 10879 10879 10875 10873 10873 10874 10873 10873 10871 10870 10868 10865 10864 10860 10854 10851 10848 10847
10675 10690 10704 10726 10731 10736 10741 10766 10781 10799 10812 10826 10837 10850 10846 10848 10855 10859 10862 10867 10868 10868 10867 10865 10867 10868 10868 10868 10863 10862 10858 10859 10859 10860 10858 10856 10855 10852 10848 10846 10846 10841 10835 10830
10659 10669 10688 10709 10714 10714 10756 10762 10772 10782 10794 10802 10816 10827 10832 10833 10838 10841 10849 10854 10854 10851 10853 10851 10851 10855 10858 10856 10852 10847 10844 10845 10846 10847 10844 10844 10842 10837 10836 10831 10830 10827 10818 10813
10647 10656 10671 10690 10694 10712 10734 10740 10750 10763 10783 10791 10802 10810 10814 10816 10820 10828 10834 10836 10834 10834 10837 10839 10838 10843 10845 10843 10838 10833 10829 10833 10833 10833 10832 10831 10829 10824 10821 10817 10811 10808 10801 10795
10632 10639 10655 10669 10680 10691 10710 10721 10729 10739 10756 10771 10783 10788 10793 10801 10806 10811 10815 10816 10818 10820 10820 10823 10823 10828 10829 10827 10823 10822 10820 10820 10821 10819 10817 10815 10813 10809 10805 10800 10793 10790 10784 10773
10619 10626 10636 10649 10662 10674 10691 10704 10710 10719 10750 10756 10761 10769 10779 10785 10790 10795 10797 10799 10804 10804 10804 10807 10809 10811 10813 10813 10812 10811 10809 10808 10808 10805 10804 10802 10796 10792 10789 10783 10774 10769 10765 10757
10604 10613 10623 10637 10648 10659 10674 10683 10693 10708 10726 10734 10738 10751 10762 10768 10770 10778 10783 10785 10788 10788 10788 10790 10792 10794 10796 10798 10796 10795 10796 10795 10793 10790 10790 10784 10777 10773 10771 10764 10757 10751 10746 10741
10594 10605 10612 10624 10635 10646 10658 10668 10680 10692 10704 10715 10725 10738 10744 10752 10759 10765 10769 10769 10769 10773 10773 10773 10776 10777 10780 10780 10780 10781 10781 10781 10778 10775 10771 10767 10761 10754 10749 10743 10739 10734 10728 10723
10582 10590 10604 10616 10626 10635 10646 10656 10666 10678 10687 10699 10713 10724 10727 10737 10743 10749 10752 10755 10756 10758 10758 10760 10761 10760 10758 10762 10767 10766 10763 10761 10758 10754 10752 10746 10743 10739 10732 10726 10720 10714 10708 10702
10574 10583 10594 10610 10621 10626 10634 10643 10653 10662 10670 10683 10698 10706 10710 10719 10726 10732 10736 10740 10741 10743 10744 10743 10742 10742 10743 10747 10749 10749 10747 10741 10737 10734 10732 10727 10723 10717 10712 10708 10703 10698 10692 10686
10565 10577 10588 10600 10606 10613 10623 10628 10637 10646 10656 10666 10678 10687 10694 10702 10709 10713 10716 10720 10723 10725 10726 10726 10724 10724 10728 10730 10730 10727 10725 10722 10718 10713 10709 10704 10701 10695 10690 10686 10680 10678 10674 10668